Current Version              Previous Version:    01  02  03  04  05  06  07  08  09  10  11  12  13  14  15  16  17  18  19  20  21  22  23  24  25  26  27  28  29  30  
   31  32  33  34  35  36  37  38  39  40  41  42  43  44  45  46  47  48  49  50  51  52  53  54  55  56  57  58  59  60  

[Printable]
648
ASUS44 KFWD 300210
RWRTX
NORTH TEXAS HOURLY WEATHER ROUNDUP
NATIONAL WEATHER SERVICE FORT WORTH TX
900 PM CDT TUE JUL 29 2014

NOTE: "FAIR" INDICATES FEW OR NO CLOUDS BELOW 12,000 FEET WITH NO
SIGNIFICANT WEATHER AND/OR OBSTRUCTIONS TO VISIBILITY.

TXZ118-119-300300-
DALLAS/FORT WORTH METROPLEX

CITY           SKY/WX    TMP DP  RH WIND       PRES   REMARKS
DFW AIRPORT    MOCLDY    81  59  47 CALM      30.05F
DALLAS LOVE    MOCLDY    81  64  56 CALM      30.05F
FTW MEACHAM    MOCLDY    79  57  46 E6        30.05F
DAL-EXECUTIVE  PTCLDY    76  64  66 CALM      30.05F
FTW-ALLIANCE   MOCLDY    74  61  63 CALM      30.05F
FTW-NAS-JRB    MOCLDY    82  55  39 E7        30.09F
FTW-SPINKS     MOCLDY    77  65  66 CALM      30.07S
ARLINGTON      PTCLDY    79  61  53 CALM      30.05F
GRAND PRAIRIE  MOCLDY    77  61  56 NE3       30.07F
ADDISON        MOCLDY    81  59  47 CALM      30.06F
LANCASTER      MOCLDY    75  65  72 CALM      30.06F
$$

TXZ091>094-102>105-117-120-121-131>134-300300-
NORTH CENTRAL TEXAS

CITY           SKY/WX    TMP DP  RH WIND       PRES   REMARKS
SHRMAN/DENISON MOCLDY    82  61  49 CALM      30.06S
GAINESVILLE    MOCLDY    76  59  55 SW3       30.08S
BOWIE          MOCLDY    72  67  86 CALM      30.07S
BRIDGEPORT     MOCLDY    74  65  73 CALM      30.08S
DECATUR        MOCLDY    73  62  67 SE3       30.07F
DENTON         MOCLDY    73  66  78 S3        30.05F
MCKINNEY       MOCLDY    83  61  47 CALM      30.05S
ROCKWALL       MOCLDY    79  67  67 CALM      30.05S
TERRELL        MOCLDY    82  64  54 CALM      30.06S
WAXAHACHIE     PTCLDY    76  60  56 CALM      30.07F
CLEBURNE       MOCLDY    79  63  57 E7        30.08S
GRANBURY       MOCLDY    82  63  53 E3        30.07S
$$

TXZ083>090-098>101-113>116-127>130-139>142-154-155-300300-
WESTERN NORTH TEXAS

CITY           SKY/WX    TMP DP  RH WIND       PRES   REMARKS
WICHITA FALLS  MOCLDY    75  65  70 E5        30.05F
WF-KICKAPOO    MOCLDY    75  64  68 E3        30.07S
VERNON         CLOUDY    76  65  68 SE3       30.07S
ABILENE        CLOUDY    76  72  87 E10       30.08F
ABILENE-DYESS  LGT RAIN  73  68  83 SE7       30.07F
BRECKENRIDGE   CLOUDY    86  55  34 SE7       30.06S
GRAHAM         MOCLDY    79  64  58 CALM      30.05S
MINERAL WELLS  MOCLDY    77  67  71 E6        30.05S
STEPHENVILLE   MOCLDY    81  59  47 SE5       30.10F
COMANCHE       MOCLDY    81  58  45 E6        30.08S
BROWNWOOD      MOCLDY    84  61  45 E8        30.07S
COLEMAN        CLOUDY    84  62  47 E9G17     30.09R
BRADY          CLEAR     81  66  61 E9        30.07S
$$

TXZ143>147-156>162-174-175-300300-
CENTRAL TEXAS

CITY           SKY/WX    TMP DP  RH WIND       PRES   REMARKS
WACO           CLEAR     80  54  40 E3        30.04S
WACO-TSTC      CLEAR     77  54  44 CALM      30.04F
WACO-MCGREGOR  CLEAR     82  55  39 E7        30.06S
HILLSBORO      MOCLDY    77  61  57 E7        30.06S
CORSICANA      MOCLDY    79  68  69 N5        30.07S
MEXIA          MOCLDY    77  71  82 CALM      30.05S
HEARNE         CLEAR    N/A N/A N/A NE5       30.03F
CAMERON        PTCLDY    83  71  68 E3        30.03S
TEMPLE         PTCLDY    82  64  54 E6        30.05S
KILLEEN        MOCLDY    84  66  54 E10       30.06R
KILLEEN-SKYLRK MOCLDY    82  66  57 E3        30.06R
FORT HOOD      MOCLDY    84  68  58 E3        30.06R
GATESVILLE     PTCLDY    82  59  44 CALM      30.08S
HAMILTON       MOCLDY    82  56  41 E5        30.09R
LAMPASAS       MOCLDY    78  73  82 CALM      30.06R
$$

TXZ095>097-106>112-122>126-135>138-148>153-164>167-300300-
EAST TEXAS

CITY           SKY/WX    TMP DP  RH WIND       PRES   REMARKS
PARIS          CLEAR     81  63  54 SE7       30.06S
SULPHUR SPRNGS CLEAR     82  65  55 SE5       30.07S
CLARKSVILLE    CLEAR     81  66  60 E3        30.05S
MOUNT PLEASANT PTCLDY    81  67  63 CALM      30.07S
GILMER         PTCLDY    81  68  65 CALM      30.07F
MINEOLA        CLEAR     79  72  78 CALM      30.06F
TYLER          MOCLDY    83  70  64 CALM      30.05F
LONGVIEW       MOCLDY    81  66  60 NE3       30.05S
MARSHALL       PTCLDY    81  69  66 CALM      30.08S
ATHENS         CLOUDY    79  73  83 CALM      30.04F
JACKSONVILLE   CLOUDY    82  73  73 CALM      30.08S
HENDERSON      MOCLDY    77  73  85 CALM      30.06S
NACOGDOCHES    MOCLDY    77  73  88 CALM      30.05S
LUFKIN         CLOUDY    82  73  74 CALM      30.04S
$$

SUPPLEMENTAL OBSERVATIONS (CENTRAL)

CITY           SKY/WX    TMP DP  RH WIND       PRES   REMARKS
PAT MAYSE LAKE   N/A     82  66  57 SE2         N/A
GREENVILLE       N/A     81  64  57 SE2         N/A
CEDAR HILL       N/A     73  63  68 CALM        N/A
MCGREGOR         N/A     82  64  54 E3          N/A
TEMPLE           N/A     82  66  57 E6          N/A
$$

SUPPLEMENTAL OBSERVATIONS (WEST)

CITY           SKY/WX    TMP DP  RH WIND       PRES   REMARKS
MILLERS CREEK    N/A     82  59  44 SE8G16      N/A
POSSUM KINGDOM   N/A     81  63  54 SE5         N/A
GRANBURY         N/A    N/A N/A N/A SE3         N/A
HAMBY            N/A     75  68  78 SE6         N/A
IVIE RESERVOIR   N/A     82  64  54 E12G22      N/A
COLORADO BEND    N/A     81  66  61 E9          N/A
$$

SUPPLEMENTAL OBSERVATIONS (EAST)

CITY           SKY/WX    TMP DP  RH WIND       PRES   REMARKS
TEXARKANA        N/A     73  70  88 CALM        N/A
LINDEN           N/A     79  66  65 CALM        N/A
LUFKIN           N/A     81  75  83 MISG        N/A
N SABINE NF      N/A     75  70  83 MISG        N/A
$$

SUPPLEMENTAL OBSERVATIONS ARE A COLLECTION OF AUTOMATED INSTRUMENTS
THAT ARE MAINTAINED BY A VARIETY OF FEDERAL AND STATE AGENCIES.
CERTAIN ELEMENTS...SUCH AS HUMIDITY VALUES AND SUSTAINED WIND
SPEEDS...MAY BE APPROXIMATED.